Year,Month,Day,Hour,Minute,Value (Times are PST for temperature in C)
2014,11,21,00,00,8.10
2014,11,21,00,01,8.10
2014,11,21,00,02,8.10
2014,11,21,00,03,8.00
2014,11,21,00,04,8.00
2014,11,21,00,05,8.00
2014,11,21,00,06,8.00
2014,11,21,00,07,8.00
2014,11,21,00,08,8.00
2014,11,21,00,09,8.00
2014,11,21,00,10,8.00
2014,11,21,00,11,8.00
2014,11,21,00,12,8.10
2014,11,21,00,13,8.10
2014,11,21,00,14,8.10
2014,11,21,00,15,8.10
2014,11,21,00,16,8.10
2014,11,21,00,17,8.10
2014,11,21,00,18,8.10
2014,11,21,00,19,8.10
2014,11,21,00,20,8.10
2014,11,21,00,21,8.10
2014,11,21,00,22,8.10
2014,11,21,00,23,8.10
2014,11,21,00,24,8.10
2014,11,21,00,25,8.10
2014,11,21,00,26,8.10
2014,11,21,00,27,8.10
2014,11,21,00,28,8.10
2014,11,21,00,29,8.10
2014,11,21,00,30,8.00
2014,11,21,00,31,8.00
2014,11,21,00,32,8.00
2014,11,21,00,33,8.00
2014,11,21,00,34,8.00
2014,11,21,00,35,8.00
2014,11,21,00,36,8.00
2014,11,21,00,37,8.00
2014,11,21,00,38,8.00
2014,11,21,00,39,8.00
2014,11,21,00,40,8.00
2014,11,21,00,41,8.00
2014,11,21,00,42,8.00
2014,11,21,00,43,8.00
2014,11,21,00,44,8.00
2014,11,21,00,45,8.00
2014,11,21,00,46,8.00
2014,11,21,00,47,8.00
2014,11,21,00,48,8.00
2014,11,21,00,49,8.00
2014,11,21,00,50,8.00
2014,11,21,00,51,8.00
2014,11,21,00,52,8.00
2014,11,21,00,53,8.00
2014,11,21,00,54,8.00
2014,11,21,00,55,8.00
2014,11,21,00,56,8.00
2014,11,21,00,57,8.00
2014,11,21,00,58,8.00
2014,11,21,00,59,8.00
2014,11,21,01,00,8.00
2014,11,21,01,01,8.00
2014,11,21,01,02,8.00
2014,11,21,01,03,8.00
2014,11,21,01,04,8.00
2014,11,21,01,05,8.00
2014,11,21,01,06,8.00
2014,11,21,01,07,8.00
2014,11,21,01,08,8.00
2014,11,21,01,09,8.00
2014,11,21,01,10,8.00
2014,11,21,01,11,8.00
2014,11,21,01,12,8.00
2014,11,21,01,13,8.00
2014,11,21,01,14,8.00
2014,11,21,01,15,8.00
2014,11,21,01,16,8.00
2014,11,21,01,17,8.00
2014,11,21,01,18,8.00
2014,11,21,01,19,8.00
2014,11,21,01,20,8.00
2014,11,21,01,21,8.00
2014,11,21,01,22,8.00
2014,11,21,01,23,8.00
2014,11,21,01,24,8.00
2014,11,21,01,25,8.00
2014,11,21,01,26,8.00
2014,11,21,01,27,7.90
2014,11,21,01,28,7.90
2014,11,21,01,29,7.90
2014,11,21,01,30,7.90
2014,11,21,01,31,7.90
2014,11,21,01,32,7.90
2014,11,21,01,33,7.90
2014,11,21,01,34,7.90
2014,11,21,01,35,7.90
2014,11,21,01,36,7.90
2014,11,21,01,37,7.90
2014,11,21,01,38,7.90
2014,11,21,01,39,7.90
2014,11,21,01,40,7.90
2014,11,21,01,41,7.90
2014,11,21,01,42,7.90
2014,11,21,01,43,7.90
2014,11,21,01,44,7.80
2014,11,21,01,45,7.80
2014,11,21,01,46,7.80
2014,11,21,01,47,7.80
2014,11,21,01,48,7.80
2014,11,21,01,49,7.80
2014,11,21,01,50,7.80
2014,11,21,01,51,7.80
2014,11,21,01,52,7.80
2014,11,21,01,53,7.80
2014,11,21,01,54,7.80
2014,11,21,01,55,7.80
2014,11,21,01,56,7.80
2014,11,21,01,57,7.90
2014,11,21,01,58,7.90
2014,11,21,01,59,7.90
2014,11,21,02,00,7.90
2014,11,21,02,01,7.90
2014,11,21,02,02,7.90
2014,11,21,02,03,7.90
2014,11,21,02,04,7.90
2014,11,21,02,05,7.90
2014,11,21,02,06,7.80
2014,11,21,02,07,7.80
2014,11,21,02,08,7.80
2014,11,21,02,09,7.80
2014,11,21,02,10,7.70
2014,11,21,02,11,7.70
2014,11,21,02,12,7.70
2014,11,21,02,13,7.70
2014,11,21,02,14,7.70
2014,11,21,02,15,7.70
2014,11,21,02,16,7.70
2014,11,21,02,17,7.70
2014,11,21,02,18,7.70
2014,11,21,02,19,7.70
2014,11,21,02,20,7.70
2014,11,21,02,21,7.70
2014,11,21,02,22,7.70
2014,11,21,02,23,7.70
2014,11,21,02,24,7.70
2014,11,21,02,25,7.60
2014,11,21,02,26,7.60
2014,11,21,02,27,7.60
2014,11,21,02,28,7.60
2014,11,21,02,29,7.60
2014,11,21,02,30,7.60
2014,11,21,02,31,7.60
2014,11,21,02,32,7.60
2014,11,21,02,33,7.60
2014,11,21,02,34,7.60
2014,11,21,02,35,7.60
2014,11,21,02,36,7.60
2014,11,21,02,37,7.60
2014,11,21,02,38,7.50
2014,11,21,02,39,7.50
2014,11,21,02,40,7.50
2014,11,21,02,41,7.40
2014,11,21,02,42,7.40
2014,11,21,02,43,7.40
2014,11,21,02,44,7.40
2014,11,21,02,45,7.40
2014,11,21,02,46,7.40
2014,11,21,02,47,7.40
2014,11,21,02,48,7.40
2014,11,21,02,49,7.40
2014,11,21,02,50,7.40
2014,11,21,02,51,7.50
2014,11,21,02,52,7.50
2014,11,21,02,53,7.50
2014,11,21,02,54,7.50
2014,11,21,02,55,7.50
2014,11,21,02,56,7.50
2014,11,21,02,57,7.50
2014,11,21,02,58,7.50
2014,11,21,02,59,7.50
2014,11,21,03,00,7.50
2014,11,21,03,01,7.50
2014,11,21,03,02,7.50
2014,11,21,03,03,7.50
2014,11,21,03,04,7.50
2014,11,21,03,05,7.60
2014,11,21,03,06,7.60
2014,11,21,03,07,7.60
2014,11,21,03,08,7.60
2014,11,21,03,09,7.60
2014,11,21,03,10,7.60
2014,11,21,03,11,7.60
2014,11,21,03,12,7.60
2014,11,21,03,13,7.60
2014,11,21,03,14,7.60
2014,11,21,03,15,7.60
2014,11,21,03,16,7.60
2014,11,21,03,17,7.60
2014,11,21,03,18,7.60
2014,11,21,03,19,7.60
2014,11,21,03,20,7.60
2014,11,21,03,21,7.60
2014,11,21,03,22,7.60
2014,11,21,03,23,7.60
2014,11,21,03,24,7.60
2014,11,21,03,25,7.60
2014,11,21,03,26,7.60
2014,11,21,03,27,7.60
2014,11,21,03,28,7.60
2014,11,21,03,29,7.60
2014,11,21,03,30,7.60
2014,11,21,03,31,7.60
2014,11,21,03,32,7.50
2014,11,21,03,33,7.60
2014,11,21,03,34,7.60
2014,11,21,03,35,7.50
2014,11,21,03,36,7.50
2014,11,21,03,37,7.50
2014,11,21,03,38,7.50
2014,11,21,03,39,7.40
2014,11,21,03,40,7.40
2014,11,21,03,41,7.40
2014,11,21,03,42,7.40
2014,11,21,03,43,7.40
2014,11,21,03,44,7.40
2014,11,21,03,45,7.30
2014,11,21,03,49,7.30
2014,11,21,03,50,7.30
2014,11,21,03,51,7.30
2014,11,21,03,52,7.30
2014,11,21,03,53,7.30
2014,11,21,03,54,7.30
2014,11,21,03,55,7.30
2014,11,21,03,56,7.30
2014,11,21,03,57,7.30
2014,11,21,03,58,7.30
2014,11,21,03,59,7.30
2014,11,21,04,00,7.30
2014,11,21,04,01,7.40
2014,11,21,04,02,7.40
2014,11,21,04,03,7.50
2014,11,21,04,04,7.50
2014,11,21,04,05,7.50
2014,11,21,04,06,7.60
2014,11,21,04,07,7.60
2014,11,21,04,08,7.60
2014,11,21,04,09,7.60
2014,11,21,04,10,7.60
2014,11,21,04,11,7.60
2014,11,21,04,12,7.60
2014,11,21,04,13,7.60
2014,11,21,04,14,7.60
2014,11,21,04,15,7.60
2014,11,21,04,16,7.60
2014,11,21,04,17,7.70
2014,11,21,04,18,7.70
2014,11,21,04,19,7.70
2014,11,21,04,20,7.70
2014,11,21,04,21,7.70
2014,11,21,04,22,7.70
2014,11,21,04,23,7.70
2014,11,21,04,24,7.70
2014,11,21,04,25,7.70
2014,11,21,04,26,7.70
2014,11,21,04,27,7.70
2014,11,21,04,28,7.70
2014,11,21,04,29,7.70
2014,11,21,04,30,7.70
2014,11,21,04,31,7.60
2014,11,21,04,32,7.60
2014,11,21,04,33,7.60
2014,11,21,04,34,7.60
2014,11,21,04,35,7.60
2014,11,21,04,36,7.60
2014,11,21,04,37,7.60
2014,11,21,04,38,7.60
2014,11,21,04,39,7.60
2014,11,21,04,40,7.50
2014,11,21,04,41,7.50
2014,11,21,04,42,7.50
2014,11,21,04,43,7.50
2014,11,21,04,44,7.50
2014,11,21,04,45,7.50
2014,11,21,04,46,7.50
2014,11,21,04,47,7.50
2014,11,21,04,48,7.50
2014,11,21,04,49,7.50
2014,11,21,04,50,7.50
2014,11,21,04,51,7.50
2014,11,21,04,52,7.50
2014,11,21,04,53,7.50
2014,11,21,04,54,7.50
2014,11,21,04,55,7.40
2014,11,21,04,56,7.40
2014,11,21,04,57,7.40
2014,11,21,04,58,7.40
2014,11,21,04,59,7.40
2014,11,21,05,00,7.40
2014,11,21,05,01,7.30
2014,11,21,05,02,7.30
2014,11,21,05,03,7.30
2014,11,21,05,04,7.30
2014,11,21,05,05,7.30
2014,11,21,05,06,7.20
2014,11,21,05,07,7.20
2014,11,21,05,08,7.20
2014,11,21,05,09,7.20
2014,11,21,05,10,7.20
2014,11,21,05,11,7.30
2014,11,21,05,12,7.30
2014,11,21,05,13,7.30
2014,11,21,05,14,7.30
2014,11,21,05,15,7.30
2014,11,21,05,16,7.30
2014,11,21,05,17,7.30
2014,11,21,05,18,7.30
2014,11,21,05,19,7.40
2014,11,21,05,20,7.40
2014,11,21,05,21,7.40
2014,11,21,05,22,7.40
2014,11,21,05,23,7.40
2014,11,21,05,24,7.40
2014,11,21,05,25,7.40
2014,11,21,05,26,7.40
2014,11,21,05,27,7.40
2014,11,21,05,28,7.40
2014,11,21,05,29,7.40
2014,11,21,05,30,7.40
2014,11,21,05,31,7.40
2014,11,21,05,32,7.40
2014,11,21,05,33,7.50
2014,11,21,05,34,7.50
2014,11,21,05,35,7.50
2014,11,21,05,36,7.50
2014,11,21,05,37,7.50
2014,11,21,05,38,7.50
2014,11,21,05,39,7.60
2014,11,21,05,40,7.60
2014,11,21,05,41,7.60
2014,11,21,05,42,7.60
2014,11,21,05,43,7.60
2014,11,21,05,44,7.60
2014,11,21,05,45,7.60
2014,11,21,05,46,7.60
2014,11,21,05,47,7.60
2014,11,21,05,48,7.60
2014,11,21,05,49,7.60
2014,11,21,05,50,7.60
2014,11,21,05,51,7.60
2014,11,21,05,52,7.60
2014,11,21,05,53,7.60
2014,11,21,05,54,7.60
2014,11,21,05,55,7.60
2014,11,21,05,56,7.60
2014,11,21,05,57,7.60
2014,11,21,05,58,7.60
2014,11,21,05,59,7.60
2014,11,21,06,00,7.60
2014,11,21,06,01,7.60
2014,11,21,06,02,7.60
2014,11,21,06,03,7.60
2014,11,21,06,04,7.60
2014,11,21,06,05,7.50
2014,11,21,06,06,7.50
2014,11,21,06,07,7.50
2014,11,21,06,08,7.50
2014,11,21,06,09,7.50
2014,11,21,06,10,7.50
2014,11,21,06,11,7.50
2014,11,21,06,12,7.50
2014,11,21,06,13,7.50
2014,11,21,06,14,7.50
2014,11,21,06,15,7.50
2014,11,21,06,16,7.50
2014,11,21,06,17,7.50
2014,11,21,06,18,7.50
2014,11,21,06,19,7.50
2014,11,21,06,20,7.40
2014,11,21,06,21,7.40
2014,11,21,06,22,7.40
2014,11,21,06,23,7.50
2014,11,21,06,24,7.50
2014,11,21,06,25,7.60
2014,11,21,06,26,7.60
2014,11,21,06,27,7.70
2014,11,21,06,28,7.70
2014,11,21,06,29,7.80
2014,11,21,06,30,7.80
2014,11,21,06,31,7.80
2014,11,21,06,32,7.80
2014,11,21,06,33,7.90
2014,11,21,06,34,7.90
2014,11,21,06,35,7.90
2014,11,21,06,36,7.90
2014,11,21,06,37,7.90
2014,11,21,06,38,7.90
2014,11,21,06,39,7.90
2014,11,21,06,40,7.90
2014,11,21,06,41,7.90
2014,11,21,06,42,7.90
2014,11,21,06,43,7.90
2014,11,21,06,44,7.90
2014,11,21,06,45,7.90
2014,11,21,06,46,7.90
2014,11,21,06,47,7.90
2014,11,21,06,48,7.90
2014,11,21,06,49,8.00
2014,11,21,06,50,8.00
2014,11,21,06,51,8.00
2014,11,21,06,52,8.00
2014,11,21,06,53,8.00
2014,11,21,06,54,8.00
2014,11,21,06,55,8.00
2014,11,21,06,56,8.00
2014,11,21,06,57,8.00
2014,11,21,06,58,8.00
2014,11,21,06,59,8.00
2014,11,21,07,00,8.10
2014,11,21,07,01,8.10
2014,11,21,07,02,8.10
2014,11,21,07,03,8.10
2014,11,21,07,04,8.10
2014,11,21,07,05,8.10
2014,11,21,07,06,8.10
2014,11,21,07,07,8.10
2014,11,21,07,08,8.10
2014,11,21,07,09,8.10
2014,11,21,07,10,8.10
2014,11,21,07,11,8.10
2014,11,21,07,12,8.10
2014,11,21,07,13,8.10
2014,11,21,07,14,8.10
2014,11,21,07,15,8.00
2014,11,21,07,16,8.00
2014,11,21,07,17,8.00
2014,11,21,07,18,8.00
2014,11,21,07,19,8.00
2014,11,21,07,20,8.00
2014,11,21,07,21,8.00
2014,11,21,07,22,7.90
2014,11,21,07,23,7.90
2014,11,21,07,24,7.90
2014,11,21,07,25,7.90
2014,11,21,07,26,7.90
2014,11,21,07,27,7.90
2014,11,21,07,28,7.90
2014,11,21,07,29,7.90
2014,11,21,07,30,7.90
2014,11,21,07,31,7.90
2014,11,21,07,32,7.90
2014,11,21,07,33,7.90
2014,11,21,07,34,7.90
2014,11,21,07,35,7.90
2014,11,21,07,36,7.90
2014,11,21,07,37,7.90
2014,11,21,07,38,7.90
2014,11,21,07,39,7.90
2014,11,21,07,40,7.90
2014,11,21,07,41,8.00
2014,11,21,07,42,8.00
2014,11,21,07,43,8.00
2014,11,21,07,44,8.00
2014,11,21,07,45,8.00
2014,11,21,07,46,8.00
2014,11,21,07,47,8.00
2014,11,21,07,48,8.00
2014,11,21,07,49,8.00
2014,11,21,07,50,8.00
2014,11,21,07,51,8.00
2014,11,21,07,52,8.00
2014,11,21,07,53,8.00
2014,11,21,07,54,8.00
2014,11,21,07,55,8.00
2014,11,21,07,56,8.00
2014,11,21,07,57,8.00
2014,11,21,07,58,8.10
2014,11,21,07,59,8.10
2014,11,21,08,00,8.10
2014,11,21,08,01,8.10
2014,11,21,08,02,8.10
2014,11,21,08,03,8.10
2014,11,21,08,04,8.10
2014,11,21,08,05,8.10
2014,11,21,08,06,8.10
2014,11,21,08,07,8.10
2014,11,21,08,08,8.10
2014,11,21,08,09,8.00
2014,11,21,08,10,8.00
2014,11,21,08,11,8.00
2014,11,21,08,12,8.00
2014,11,21,08,13,8.00
2014,11,21,08,14,7.90
2014,11,21,08,15,7.90
2014,11,21,08,16,7.90
2014,11,21,08,17,7.90
2014,11,21,08,18,7.90
2014,11,21,08,19,7.90
2014,11,21,08,20,7.90
2014,11,21,08,21,7.90
2014,11,21,08,22,7.90
2014,11,21,08,23,7.90
2014,11,21,08,24,7.90
2014,11,21,08,25,8.00
2014,11,21,08,26,8.00
2014,11,21,08,27,8.00
2014,11,21,08,28,8.00
2014,11,21,08,29,8.00
2014,11,21,08,30,8.10
2014,11,21,08,31,8.10
2014,11,21,08,32,8.10
2014,11,21,08,33,8.10
2014,11,21,08,34,8.10
2014,11,21,08,35,8.10
2014,11,21,08,36,8.10
2014,11,21,08,37,8.10
2014,11,21,08,38,8.10
2014,11,21,08,39,8.10
2014,11,21,08,40,8.10
2014,11,21,08,41,8.10
2014,11,21,08,42,8.10
2014,11,21,08,43,8.10
2014,11,21,08,44,8.20
2014,11,21,08,45,8.20
2014,11,21,08,46,8.20
2014,11,21,08,47,8.20
2014,11,21,08,48,8.20
2014,11,21,08,49,8.20
2014,11,21,08,50,8.20
2014,11,21,08,51,8.20
2014,11,21,08,52,8.20
2014,11,21,08,53,8.20
2014,11,21,08,54,8.20
2014,11,21,08,55,8.20
2014,11,21,08,56,8.20
2014,11,21,08,57,8.20
2014,11,21,08,58,8.20
2014,11,21,08,59,8.20
2014,11,21,09,00,8.20
2014,11,21,09,01,8.20
2014,11,21,09,02,8.30
2014,11,21,09,03,8.30
2014,11,21,09,04,8.30
2014,11,21,09,05,8.30
2014,11,21,09,06,8.30
2014,11,21,09,07,8.30
2014,11,21,09,08,8.30
2014,11,21,09,09,8.30
2014,11,21,09,10,8.30
2014,11,21,09,11,8.30
2014,11,21,09,12,8.30
2014,11,21,09,13,8.30
2014,11,21,09,14,8.30
2014,11,21,09,15,8.30
2014,11,21,09,16,8.30
2014,11,21,09,17,8.30
2014,11,21,09,18,8.30
2014,11,21,09,19,8.30
2014,11,21,09,20,8.30
2014,11,21,09,21,8.30
2014,11,21,09,22,8.30
2014,11,21,09,23,8.30
2014,11,21,09,24,8.30
2014,11,21,09,25,8.30
2014,11,21,09,26,8.30
2014,11,21,09,27,8.30
2014,11,21,09,28,8.40
2014,11,21,09,29,8.40
2014,11,21,09,30,8.40
2014,11,21,09,31,8.40
2014,11,21,09,32,8.40
2014,11,21,09,33,8.40
2014,11,21,09,34,8.40
2014,11,21,09,35,8.40
2014,11,21,09,36,8.40
2014,11,21,09,37,8.40
2014,11,21,09,38,8.40
2014,11,21,09,39,8.40
2014,11,21,09,40,8.50
2014,11,21,09,41,8.50
2014,11,21,09,42,8.50
2014,11,21,09,43,8.50
2014,11,21,09,44,8.50
2014,11,21,09,45,8.50
2014,11,21,09,46,8.50
2014,11,21,09,47,8.60
2014,11,21,09,48,8.60
2014,11,21,09,49,8.60
2014,11,21,09,50,8.60
2014,11,21,09,51,8.60
2014,11,21,09,52,8.60
2014,11,21,09,53,8.60
2014,11,21,09,54,8.60
2014,11,21,09,55,8.60
2014,11,21,09,56,8.60
2014,11,21,09,57,8.60
2014,11,21,09,58,8.60
2014,11,21,09,59,8.60
2014,11,21,10,00,8.60
2014,11,21,10,01,8.60
2014,11,21,10,02,8.60
2014,11,21,10,03,8.60
2014,11,21,10,04,8.60
2014,11,21,10,05,8.60
2014,11,21,10,06,8.60
2014,11,21,10,07,8.60
2014,11,21,10,08,8.60
2014,11,21,10,09,8.70
2014,11,21,10,10,8.70
2014,11,21,10,11,8.70
2014,11,21,10,12,8.70
2014,11,21,10,13,8.70
2014,11,21,10,14,8.70
2014,11,21,10,15,8.70
2014,11,21,10,16,8.70
2014,11,21,10,17,8.70
2014,11,21,10,18,8.70
2014,11,21,10,19,8.70
2014,11,21,10,20,8.70
2014,11,21,10,21,8.70
2014,11,21,10,22,8.70
2014,11,21,10,23,8.70
2014,11,21,10,24,8.70
2014,11,21,10,25,8.70
2014,11,21,10,26,8.70
2014,11,21,10,27,8.70
2014,11,21,10,28,8.70
2014,11,21,10,29,8.70
2014,11,21,10,30,8.70
2014,11,21,10,31,8.70
2014,11,21,10,32,8.70
2014,11,21,10,33,8.70
2014,11,21,10,34,8.70
2014,11,21,10,35,8.70
2014,11,21,10,36,8.70
2014,11,21,10,37,8.70
2014,11,21,10,38,8.70
2014,11,21,10,39,8.70
2014,11,21,10,40,8.70
2014,11,21,10,41,8.70
2014,11,21,10,42,8.70
2014,11,21,10,43,8.70
2014,11,21,10,44,8.70
2014,11,21,10,45,8.70
2014,11,21,10,46,8.70
2014,11,21,10,47,8.70
2014,11,21,10,48,8.70
2014,11,21,10,49,8.70
2014,11,21,10,50,8.70
2014,11,21,10,51,8.70
2014,11,21,10,52,8.70
2014,11,21,10,53,8.70
2014,11,21,10,54,8.70
2014,11,21,10,55,8.80
2014,11,21,10,56,8.80
2014,11,21,10,57,8.80
2014,11,21,10,58,8.80
2014,11,21,10,59,8.80
2014,11,21,11,00,8.80
2014,11,21,11,01,8.80
2014,11,21,11,02,8.80
2014,11,21,11,03,8.80
2014,11,21,11,04,8.80
2014,11,21,11,05,8.80
2014,11,21,11,06,8.80
2014,11,21,11,07,8.80
2014,11,21,11,08,8.80
2014,11,21,11,09,8.80
2014,11,21,11,10,8.80
2014,11,21,11,11,8.80
2014,11,21,11,12,8.80
2014,11,21,11,13,8.80
2014,11,21,11,14,8.80
2014,11,21,11,15,8.80
2014,11,21,11,16,8.80
2014,11,21,11,17,8.90
2014,11,21,11,18,8.90
2014,11,21,11,19,8.90
2014,11,21,14,18,8.80
2014,11,21,14,19,8.80
2014,11,21,14,20,8.80
2014,11,21,14,21,8.80
2014,11,21,14,22,8.80
2014,11,21,14,23,8.80
2014,11,21,14,24,8.80
2014,11,21,14,25,8.80
2014,11,21,14,26,8.80
2014,11,21,14,27,8.80
2014,11,21,14,28,8.80
2014,11,21,14,29,8.80
2014,11,21,14,30,8.80
2014,11,21,14,31,8.80
2014,11,21,14,32,8.80
2014,11,21,14,33,8.80
2014,11,21,14,34,8.80
2014,11,21,14,35,8.80
2014,11,21,14,36,8.80
2014,11,21,14,37,8.80
2014,11,21,14,38,8.80
2014,11,21,14,39,8.80
2014,11,21,14,40,8.80
2014,11,21,14,41,8.80
2014,11,21,14,42,8.80
2014,11,21,14,43,8.80
2014,11,21,14,44,8.90
2014,11,21,14,45,8.90
2014,11,21,14,46,8.80
2014,11,21,14,47,8.90
2014,11,21,14,48,8.90
2014,11,21,14,49,8.90
2014,11,21,14,50,8.90
2014,11,21,14,51,8.80
2014,11,21,14,52,8.80
2014,11,21,14,53,8.80
2014,11,21,14,54,8.80
2014,11,21,14,55,8.80
2014,11,21,14,56,8.80
2014,11,21,14,57,8.80
2014,11,21,14,58,8.80
2014,11,21,14,59,8.80
2014,11,21,15,00,8.80
2014,11,21,15,01,8.80
2014,11,21,15,02,8.80
2014,11,21,15,03,8.80
2014,11,21,15,04,8.80
2014,11,21,15,05,8.80
2014,11,21,15,06,8.80
2014,11,21,15,07,8.80
2014,11,21,15,08,8.80
2014,11,21,15,09,8.80
2014,11,21,15,10,8.80
2014,11,21,15,11,8.80
2014,11,21,15,12,8.80
2014,11,21,15,13,8.80
2014,11,21,15,14,8.80
2014,11,21,15,15,8.80
2014,11,21,15,16,8.80
2014,11,21,15,17,8.70
2014,11,21,15,18,8.70
2014,11,21,15,19,8.70
2014,11,21,15,20,8.70
2014,11,21,15,21,8.70
2014,11,21,15,22,8.70
2014,11,21,15,23,8.70
2014,11,21,15,24,8.70
2014,11,21,15,25,8.70
2014,11,21,15,26,8.70
2014,11,21,15,27,8.70
2014,11,21,15,28,8.70
2014,11,21,15,29,8.70
2014,11,21,15,30,8.70
2014,11,21,15,31,8.70
2014,11,21,15,32,8.70
2014,11,21,15,33,8.70
2014,11,21,15,34,8.60
2014,11,21,15,35,8.60
2014,11,21,15,36,8.60
2014,11,21,15,37,8.60
2014,11,21,15,38,8.60
2014,11,21,15,39,8.60
2014,11,21,15,40,8.60
2014,11,21,15,41,8.60
2014,11,21,15,42,8.60
2014,11,21,15,43,8.60
2014,11,21,15,44,8.60
2014,11,21,15,45,8.60
2014,11,21,15,46,8.60
2014,11,21,15,47,8.60
2014,11,21,15,48,8.60
2014,11,21,15,49,8.60
2014,11,21,15,50,8.60
2014,11,21,15,51,8.60
2014,11,21,15,52,8.60
2014,11,21,15,53,8.60
2014,11,21,15,54,8.60
2014,11,21,15,55,8.60
2014,11,21,15,56,8.60
2014,11,21,15,57,8.60
2014,11,21,15,58,8.60
2014,11,21,15,59,8.60
2014,11,21,16,00,8.60
2014,11,21,16,01,8.60
2014,11,21,16,02,8.60
2014,11,21,16,03,8.60
2014,11,21,16,04,8.60
2014,11,21,16,05,8.60
2014,11,21,16,06,8.70
2014,11,21,16,07,8.70
2014,11,21,16,08,8.70
2014,11,21,16,09,8.70
2014,11,21,16,10,8.70
2014,11,21,16,11,8.70
2014,11,21,16,12,8.70
2014,11,21,16,13,8.70
2014,11,21,16,14,8.70
2014,11,21,16,15,8.70
2014,11,21,16,16,8.70
2014,11,21,16,17,8.70
2014,11,21,16,18,8.70
2014,11,21,16,19,8.70
2014,11,21,16,20,8.70
2014,11,21,16,21,8.70
2014,11,21,16,22,8.70
2014,11,21,16,23,8.70
2014,11,21,16,24,8.80
2014,11,21,16,25,8.80
2014,11,21,16,26,8.80
2014,11,21,16,27,8.80
2014,11,21,16,28,8.80
2014,11,21,16,29,8.80
2014,11,21,16,30,8.80
2014,11,21,16,31,8.80
2014,11,21,16,32,8.80
2014,11,21,16,33,8.80
2014,11,21,16,34,8.80
2014,11,21,16,35,8.80
2014,11,21,16,36,8.80
2014,11,21,16,37,8.80
2014,11,21,16,38,8.80
2014,11,21,16,39,8.80
2014,11,21,16,40,8.80
2014,11,21,16,41,8.80
2014,11,21,16,42,8.80
2014,11,21,16,43,8.80
2014,11,21,16,44,8.80
2014,11,21,16,45,8.90
2014,11,21,16,46,8.90
2014,11,21,16,47,8.90
2014,11,21,16,48,8.90
2014,11,21,16,49,8.90
2014,11,21,16,50,8.90
2014,11,21,16,51,8.90
2014,11,21,16,52,9.00
2014,11,21,16,53,9.00
2014,11,21,16,54,9.00
2014,11,21,16,55,9.00
2014,11,21,16,56,9.00
2014,11,21,16,57,9.10
2014,11,21,16,58,9.00
2014,11,21,16,59,9.10
2014,11,21,17,00,9.00
2014,11,21,17,01,9.10
2014,11,21,17,02,9.10
2014,11,21,17,03,9.10
2014,11,21,17,04,9.10
2014,11,21,17,05,9.10
2014,11,21,17,06,9.10
2014,11,21,17,07,9.10
2014,11,21,17,08,9.10
2014,11,21,17,09,9.10
2014,11,21,17,10,9.10
2014,11,21,17,11,9.10
2014,11,21,17,12,9.10
2014,11,21,17,13,9.10
2014,11,21,17,14,9.10
2014,11,21,17,15,9.10
2014,11,21,17,16,9.10
2014,11,21,17,17,9.10
2014,11,21,17,18,9.10
2014,11,21,17,19,9.10
2014,11,21,17,20,9.10
2014,11,21,17,21,9.10
2014,11,21,17,22,9.10
2014,11,21,17,23,9.10
2014,11,21,17,24,9.10
2014,11,21,17,25,9.10
2014,11,21,17,26,9.10
2014,11,21,17,27,9.10
2014,11,21,17,28,9.10
2014,11,21,17,29,9.10
2014,11,21,17,30,9.10
2014,11,21,17,31,9.10
2014,11,21,17,32,9.10
2014,11,21,17,33,9.10
2014,11,21,17,34,9.10
2014,11,21,17,35,9.10
2014,11,21,17,36,9.10
2014,11,21,17,37,9.10
2014,11,21,17,38,9.10
2014,11,21,17,39,9.10
2014,11,21,17,40,9.10
2014,11,21,17,41,9.10
2014,11,21,17,42,9.10
2014,11,21,17,43,9.10
2014,11,21,17,44,9.10
2014,11,21,17,45,9.00
2014,11,21,17,46,9.00
2014,11,21,17,47,9.00
2014,11,21,17,48,9.00
2014,11,21,17,49,9.00
2014,11,21,17,50,9.00
2014,11,21,17,51,9.00
2014,11,21,17,52,9.00
2014,11,21,17,53,9.00
2014,11,21,17,54,9.00
2014,11,21,17,55,9.00
2014,11,21,17,56,9.00
2014,11,21,17,57,9.00
2014,11,21,17,58,9.00
2014,11,21,17,59,9.00
2014,11,21,18,00,9.00
2014,11,21,18,01,9.00
2014,11,21,18,02,9.00
2014,11,21,18,03,9.00
2014,11,21,18,04,9.00
2014,11,21,18,05,9.00
2014,11,21,18,06,9.00
2014,11,21,18,07,9.00
2014,11,21,18,08,8.90
2014,11,21,18,09,8.90
2014,11,21,18,10,8.90
2014,11,21,18,11,8.90
2014,11,21,18,12,8.90
2014,11,21,18,13,8.90
2014,11,21,18,14,8.90
2014,11,21,18,15,8.90
2014,11,21,18,16,9.00
2014,11,21,18,17,8.90
2014,11,21,18,18,8.90
2014,11,21,18,19,8.90
2014,11,21,18,20,8.90
2014,11,21,18,21,8.90
2014,11,21,18,22,8.90
2014,11,21,18,23,8.90
2014,11,21,18,24,8.90
2014,11,21,18,25,8.90
2014,11,21,18,26,8.90
2014,11,21,18,27,8.90
2014,11,21,18,28,8.90
2014,11,21,18,29,8.90
2014,11,21,18,30,8.90
2014,11,21,18,31,8.90
2014,11,21,18,32,8.90
2014,11,21,18,33,8.90
2014,11,21,18,34,8.90
2014,11,21,18,35,8.90
2014,11,21,18,36,8.90
2014,11,21,18,37,8.90
2014,11,21,18,38,8.90
2014,11,21,18,39,8.90
2014,11,21,18,40,8.80
2014,11,21,18,41,8.80
2014,11,21,18,42,8.80
2014,11,21,18,43,8.80
2014,11,21,18,44,8.80
2014,11,21,18,45,8.80
2014,11,21,18,46,8.80
2014,11,21,18,47,8.80
2014,11,21,18,48,8.80
2014,11,21,18,49,8.80
2014,11,21,18,50,8.80
2014,11,21,18,51,8.80
2014,11,21,18,52,8.80
2014,11,21,18,53,8.70
2014,11,21,18,54,8.70
2014,11,21,18,55,8.70
2014,11,21,18,56,8.70
2014,11,21,18,57,8.70
2014,11,21,18,58,8.70
2014,11,21,18,59,8.70
2014,11,21,19,00,8.70
2014,11,21,19,01,8.70
2014,11,21,19,02,8.70
2014,11,21,19,03,8.70
2014,11,21,19,04,8.70
2014,11,21,19,05,8.70
2014,11,21,19,06,8.70
2014,11,21,19,07,8.70
2014,11,21,19,08,8.70
2014,11,21,19,09,8.70
2014,11,21,19,10,8.70
2014,11,21,19,11,8.70
2014,11,21,19,12,8.70
2014,11,21,19,13,8.70
2014,11,21,19,14,8.70
2014,11,21,19,15,8.70
2014,11,21,19,16,8.70
2014,11,21,19,17,8.70
2014,11,21,19,18,8.70
2014,11,21,19,19,8.70
2014,11,21,19,20,8.70
2014,11,21,19,21,8.70
2014,11,21,19,22,8.70
2014,11,21,19,23,8.70
2014,11,21,19,24,8.70
2014,11,21,19,25,8.70
2014,11,21,19,26,8.70
2014,11,21,19,27,8.70
2014,11,21,19,28,8.70
2014,11,21,19,29,8.70
2014,11,21,19,30,8.70
2014,11,21,19,31,8.70
2014,11,21,19,32,8.70
2014,11,21,19,33,8.70
2014,11,21,19,34,8.70
2014,11,21,19,35,8.70
2014,11,21,19,36,8.70
2014,11,21,19,37,8.70
2014,11,21,19,38,8.70
2014,11,21,19,39,8.70
2014,11,21,19,40,8.70
2014,11,21,19,41,8.70
2014,11,21,19,42,8.70
2014,11,21,19,43,8.70
2014,11,21,19,44,8.70
2014,11,21,19,45,8.70
2014,11,21,19,46,8.70
2014,11,21,19,47,8.70
2014,11,21,19,48,8.70
2014,11,21,19,49,8.70
2014,11,21,19,50,8.70
2014,11,21,19,51,8.70
2014,11,21,19,52,8.70
2014,11,21,19,53,8.70
2014,11,21,19,54,8.70
2014,11,21,19,55,8.70
2014,11,21,19,56,8.70
2014,11,21,19,57,8.70
2014,11,21,19,58,8.70
2014,11,21,19,59,8.70
2014,11,21,20,00,8.70
2014,11,21,20,01,8.70
2014,11,21,20,02,8.70
2014,11,21,20,03,8.70
2014,11,21,20,04,8.70
2014,11,21,20,05,8.70
2014,11,21,20,06,8.70
2014,11,21,20,07,8.70
2014,11,21,20,08,8.70
2014,11,21,20,09,8.70
2014,11,21,20,10,8.70
2014,11,21,20,11,8.70
2014,11,21,20,12,8.70
2014,11,21,20,13,8.70
2014,11,21,20,14,8.70
2014,11,21,20,15,8.70
2014,11,21,20,16,8.70
2014,11,21,20,17,8.80
2014,11,21,20,18,8.80
2014,11,21,20,19,8.80
2014,11,21,20,20,8.80
2014,11,21,20,21,8.80
2014,11,21,20,22,8.80
2014,11,21,20,23,8.80
2014,11,21,20,24,8.80
2014,11,21,20,25,8.80
2014,11,21,20,26,8.80
2014,11,21,20,27,8.80
2014,11,21,20,28,8.80
2014,11,21,20,29,8.70
2014,11,21,20,30,8.70
2014,11,21,20,31,8.70
2014,11,21,20,32,8.70
2014,11,21,20,33,8.70
2014,11,21,20,34,8.70
2014,11,21,20,35,8.70
2014,11,21,20,36,8.70
2014,11,21,20,37,8.70
2014,11,21,20,38,8.70
2014,11,21,20,39,8.70
2014,11,21,20,40,8.70
2014,11,21,20,41,8.60
2014,11,21,20,42,8.60
2014,11,21,20,43,8.60
2014,11,21,20,44,8.60
2014,11,21,20,45,8.60
2014,11,21,20,46,8.60
2014,11,21,20,47,8.60
2014,11,21,20,48,8.60
2014,11,21,20,49,8.60
2014,11,21,20,50,8.60
2014,11,21,20,51,8.60
2014,11,21,20,52,8.60
2014,11,21,20,53,8.60
2014,11,21,20,54,8.60
2014,11,21,20,55,8.60
2014,11,21,20,56,8.60
2014,11,21,20,57,8.60
2014,11,21,20,58,8.60
2014,11,21,20,59,8.60
2014,11,21,21,00,8.60
2014,11,21,21,01,8.60
2014,11,21,21,02,8.60
2014,11,21,21,03,8.60
2014,11,21,21,04,8.60
2014,11,21,21,05,8.60
2014,11,21,21,06,8.60
2014,11,21,21,07,8.60